Regional Weather Roundup
Issued by NWS Jackson, KY

Home | Current Version | Previous Version | Text Only | Print | Product List | Glossary On
Versions: 1 2 3 4 5 6 7 8 9 10 11 12 13 14 15 16 17 18 19 20 21 22 23 24 25 26 27 28
000
ASUS43 KJKL 272010
RWRJKL

EAST KENTUCKY HOURLY WEATHER ROUNDUP
NATIONAL WEATHER SERVICE JACKSON KY
400 PM EDT FRI MAY 27 2016

NOTE: "FAIR" INDICATES FEW OR NO CLOUDS BELOW 12,000 FEET WITH
NO SIGNIFICANT WEATHER AND/OR OBSTRUCTIONS TO VISIBILITY.

* THESE REPORTS ARE NOT UNDER NWS QUALITY CONTROL AND MAY NOT
  REPORT WEATHER SUCH AS PRECIPITATION AND FOG.

KYZ079-080-083-085-087-088-110-112-115-119-120-272100
...EASTERN KENTUCKY...

CITY           SKY/WX    TMP DP  RH WIND       PRES   REMARKS
JACKSON        MOSUNNY   84  64  50 CALM      30.06F
LONDON         MOSUNNY   84  63  49 S8        30.05F
SOMERSET*      CLOUDY    81  64  57 S3        30.04F
MONTICELLO*    CLOUDY    84  69  60 VRB7      30.04F
WILLIAMSBURG*  PTCLDY    82  64  54 SE6       30.04F
MIDDLESBORO*   SUNNY     86  63  46 SW3       30.06F
HARLAN APT*      N/A     84  61  45 W6        30.07F
HAZARD APT*    CLEAR     86  63  45 CALM      30.06F
BLACK MTN*       N/A     75  61  60 S6          N/A
PIKE CO APT*     N/A     81  67  61 SW3       30.08F
BIG SANDY APT* MOCLDY    85  65  51 S3        30.05F
MOREHEAD APT*  CLEAR     86  64  48 SW7       30.06F
ASHLAND*       SUNNY     88  66  48 W7        30.00F HX  90
$$

KYZ035-036-041-042-044-050-067-078-099-272100
...CENTRAL KENTUCKY...

CITY           SKY/WX    TMP DP  RH WIND       PRES   REMARKS
MT STERLING*   MOSUNNY   82  64  54 W7        30.05F
FLEMING/MASON* SUNNY    N/A N/A N/A SW10      30.04F
DANVILLE*      CLOUDY    82  64  54 S9        30.04F
RICHMOND*      CLOUDY    84  64  51 S7        30.03F
LEXINGTON      CLOUDY    84  65  52 S9        30.03F
FRANKFORT      MOSUNNY   86  65  49 SW7       30.00F
LOUISVILLE     PTSUNNY   86  62  44 S17       29.97F
LEBANON*         N/A     82  66  57 S9        30.02S
GLASGOW*       CLOUDY    85  64  49 S8        30.00S
BOWLING GREEN  PTSUNNY   85  66  53 S10       29.98F
$$

KYZ091>093-OHZ055-061-077-WVZ005-015-034-035-042-272100
...SOUTHERN OHIO/WEST VIRGINIA...

CITY           SKY/WX    TMP DP  RH WIND       PRES   REMARKS
COVINGTON      MOSUNNY   84  64  50 S13G18    30.01F
COLUMBUS       PTSUNNY   87  61  41 SW9       30.00F
DAYTON         MOSUNNY   86  62  44 SW13      30.01F
WILMINGTON     MOSUNNY   85  64  49 SW13      30.02F
HUNTINGTON       N/A     87  67  51 S7        30.03F HX  90
CHARLESTON       N/A     86  62  44 W5        30.04F
PINEVILLE*       N/A     88  55  32 MISG      30.13F
BECKLEY          N/A     81  57  43 S8        30.13F
BLUEFIELD        N/A     75  57  53 CALM      30.17F
LOGAN CO APT*    N/A     84  63  48 CALM      30.07F
$$

VAZ002-007-008-TNZ017-027-036-066-071-272100
...SOUTHWEST VIRGINIA/EAST TENNESSEE...

CITY           SKY/WX    TMP DP  RH WIND       PRES   REMARKS
WISE*            N/A     81  50  34 S3        30.15F
JONESVILLE*      N/A     84  64  51 CALM      30.08F
ABINGDON*      CLOUDY    78  60  54 SE9       30.12S
BRISTOL        MOSUNNY   86  61  42 W3        30.07F
SEVIERVILLE*   CLEAR     75  64  69 W8        30.07F
KNOXVILLE      CLOUDY    71  68  90 E7        30.08S
OAK RIDGE      CLOUDY    77  64  64 SE10      30.08S
CROSSVILLE     CLOUDY    80  62  54 VRB7      30.07F
NASHVILLE      PTSUNNY   89  61  38 S13G21    29.98F
$$

...KEY TO REMARKS...
VSB - VISIBILITY IN MILES
WCI - WIND CHILL INDEX
HX  - HEAT INDEX

$$




USA.gov is the U.S. government's official web portal to all federal, state and local government web resources and services.